Location: Johnson City
(36.3130°N, 82.3540°W)
Time: 15:35:37
(UTC-05:00)

Amateur Radio Satellites - All Passes

Search period start: 23 November 2017 15:05
Search period end: 24 November 2017 15:05
Location: Johnson City, 36.3130°N, 82.3540°W

Satellite Date Start Highest point End Downlink Frequencies (MHz)
Time Altitude Azimuth
MOZHAYETS 4 23 Nov 15:06:26 15:10:29 31° 97° (E) 15:14:32
BEESAT 23 Nov 15:07:19 15:11:04 23° 96° (E) 15:14:49 436.000
DOVE 4 23 Nov 15:18:03 15:19:14 11° 61° (ENE) 15:20:25 437.250
ITUPSAT 1 23 Nov 15:18:28 15:22:38 30° 97° (E) 15:26:46 437.325
CUBESAT XI-V 23 Nov 15:27:23 15:28:31 11° 91° (E) 15:29:38 437.345
NO-84 23 Nov 15:37:48 15:40:34 20° 327° (NNW) 15:43:30 435.350 FM
ITAMSAT 1 23 Nov 15:39:25 15:44:37 71° 257° (WSW) 15:49:52 435.822/435.867
JUGNU 23 Nov 15:40:04 15:43:22 15° 180° (S) 15:46:40 437.505
KKS-1 23 Nov 16:40:39 16:42:57 14° 93° (E) 16:45:14 437.445
MOZHAYETS 4 23 Nov 16:43:56 16:47:26 22° 291° (WNW) 16:50:56
BEESAT 23 Nov 16:44:39 16:48:49 31° 290° (WNW) 16:52:59 436.000
RS-15 23 Nov 16:46:54 16:55:39 24° 100° (E) 17:04:24 29.354- 29.394
YUBILEINY 23 Nov 16:50:41 16:59:34 73° 82° (E) 17:08:21 435.215
DOVE 4 23 Nov 16:51:00 16:56:01 86° 259° (W) 17:01:18 437.250
AO-7 23 Nov 16:53:36 16:59:06 19° 267° (W) 17:04:38 .
ITUPSAT 1 23 Nov 16:56:27 17:00:17 25° 292° (WNW) 17:04:06 437.325
CUBESAT XI-V 23 Nov 17:01:35 17:06:14 64° 285° (WNW) 17:10:53 437.345
XW-2C 23 Nov 17:03:08 17:05:50 19° 70° (ENE) 17:08:31 145.795 - 145.815
LilacSat-2 23 Nov 17:08:07 17:11:10 24° 71° (ENE) 17:14:15 437.200
XW-2F 23 Nov 17:11:02 17:13:56 22° 71° (ENE) 17:16:51 145.980 - 146.000
JUGNU 23 Nov 17:29:18 17:31:33 12° 190° (S) 17:33:49 437.505
SRMSAT 23 Nov 17:29:46 17:32:45 14° 173° (S) 17:35:45 437.500
CUTE-I 23 Nov 17:30:43 17:35:45 43° 71° (ENE) 17:40:48 437.470
KAITUO 1B 23 Nov 17:33:42 17:37:00 32° 73° (ENE) 17:40:19 145.475/437.950
HO-68 23 Nov 17:55:08 18:01:38 38° 66° (ENE) 18:08:09 435.675
XW-2D 23 Nov 17:55:16 17:58:59 80° 258° (WSW) 18:02:44 145.860 - 145.880
CUBEBUG 2 23 Nov 17:56:17 17:58:19 13° 66° (ENE) 18:00:20 437.445
CUTE 1.7 + AOD 2 23 Nov 18:06:06 18:09:35 26° 71° (ENE) 18:13:06 437.475
XW-2B 23 Nov 18:10:19 18:13:56 51° 260° (W) 18:17:36 145.730 - 145.750
NUDT-PHONESAT 23 Nov 18:13:09 18:16:45 72° 258° (WSW) 18:20:25 437.300
KKS-1 23 Nov 18:15:27 18:19:42 45° 287° (WNW) 18:23:55 437.445
SEEDS 23 Nov 18:30:59 18:34:37 30° 71° (ENE) 18:38:16 437.485
AAUSAT CUBESAT 2 23 Nov 18:31:24 18:33:08 12° 66° (ENE) 18:34:53 437.432
STARS 23 Nov 18:31:38 18:36:02 80° 284° (WNW) 18:40:23 437.465
XW-2C 23 Nov 18:36:52 18:39:50 23° 264° (W) 18:42:50 145.795 - 145.815
nSIGHT-1 23 Nov 18:40:56 18:42:38 14° 128° (SE) 18:44:20 .
LilacSat-2 23 Nov 18:42:45 18:45:22 18° 265° (W) 18:48:01 437.200
XW-2F 23 Nov 18:45:14 18:47:56 19° 265° (W) 18:50:40 145.980 - 146.000
UWE-3 23 Nov 18:45:34 18:49:09 24° 71° (ENE) 18:52:40 435.000/436.395/437.385
YUBILEINY 23 Nov 18:49:20 18:55:21 21° 280° (W) 19:01:23 435.215
XW-2A 23 Nov 18:53:12 18:55:44 21° 71° (ENE) 18:58:18 145.665 - 145.685
RS-15 23 Nov 18:54:18 19:06:38 86° 299° (WNW) 19:19:00 29.354- 29.394
STRAND 1 23 Nov 19:02:57 19:06:47 21° 94° (E) 19:10:37 437.568
KAITUO 1B 23 Nov 19:09:23 19:11:04 13° 267° (W) 19:12:45 145.475/437.950
CUTE-I 23 Nov 19:11:56 19:15:55 21° 266° (W) 19:19:55 437.470
SRMSAT 23 Nov 19:17:51 19:21:07 15° 184° (S) 19:24:25 437.500
AO-73 23 Nov 19:18:54 19:22:25 25° 71° (ENE) 19:25:53 145.935
CUBEBUG 2 23 Nov 19:29:59 19:34:28 54° 260° (W) 19:38:51 437.445
Oscar 11 23 Nov 19:32:12 19:35:37 24° 70° (ENE) 19:39:03 .
ISS 23 Nov 19:32:25 19:35:31 41° 134° (SE) 19:38:37 437.550
CUTE 1.7 + AOD 2 23 Nov 19:42:08 19:45:21 21° 265° (W) 19:48:36 437.475
HO-68 23 Nov 19:42:44 19:49:15 37° 262° (W) 19:55:51 435.675
AAUSAT CUBESAT 2 23 Nov 20:04:10 20:08:07 46° 261° (W) 20:12:08 437.432
ZACube-1 23 Nov 20:04:51 20:09:10 78° 259° (W) 20:13:25 437.345
SO-50 23 Nov 20:05:17 20:07:24 13° 108° (ESE) 20:09:32 436.795
SEEDS 23 Nov 20:07:23 20:10:18 18° 266° (W) 20:13:13 437.485
DELFI C3 23 Nov 20:11:03 20:12:22 11° 66° (ENE) 20:13:42 145.870
nSIGHT-1 23 Nov 20:15:26 20:18:33 46° 322° (NW) 20:21:40 .
UWE-3 23 Nov 20:21:48 20:25:28 25° 264° (W) 20:29:05 435.000/436.395/437.385
FO-29 23 Nov 20:23:54 20:31:07 41° 96° (E) 20:37:46 435.910
XW-2A 23 Nov 20:26:19 20:28:22 15° 265° (W) 20:30:25 145.665 - 145.685
NO-84 23 Nov 20:34:52 20:37:37 17° 30° (NNE) 20:40:24 435.350 FM
Max Valier Satellite 23 Nov 20:39:56 20:42:12 16° 69° (ENE) 20:44:29 145.860
STRAND 1 23 Nov 20:41:20 20:46:03 39° 289° (WNW) 20:50:44 437.568
AO-73 23 Nov 20:55:10 20:58:34 23° 264° (W) 21:01:55 145.935
Oscar 11 23 Nov 21:08:06 21:11:38 25° 264° (W) 21:15:10 .
SRMSAT 23 Nov 21:08:54 21:09:28 10° 194° (SSW) 21:10:03 437.500
ISS 23 Nov 21:09:34 21:12:06 20° 330° (NNW) 21:14:38 437.550
RS-15 23 Nov 21:11:02 21:21:07 28° 324° (NW) 21:31:08 29.354- 29.394
DELFI C3 23 Nov 21:42:49 21:46:38 47° 261° (W) 21:50:29 145.870
SO-50 23 Nov 21:42:59 21:47:21 53° 303° (WNW) 21:51:45 436.795
O/OREOS (USA 219) 23 Nov 21:58:13 22:00:17 13° 56° (ENE) 22:02:19 437.305
EO-88 23 Nov 22:03:36 22:07:07 51° 260° (W) 22:10:40 145.990 - 145.960
UNISAT 6 23 Nov 22:07:15 22:11:28 60° 100° (E) 22:15:39 437.425
FO-29 23 Nov 22:08:55 22:15:57 39° 293° (WNW) 22:22:32 435.910
TIGRISAT 23 Nov 22:10:47 22:14:59 59° 101° (E) 22:19:10 435.000
NO-84 23 Nov 22:11:12 22:15:28 87° 232° (SW) 22:19:42 435.350 FM
Max Valier Satellite 23 Nov 22:12:40 22:15:47 26° 263° (W) 22:18:53 145.860
PRISM 23 Nov 22:13:25 22:16:33 20° 95° (E) 22:19:38 437.425
LO-87 23 Nov 22:19:12 22:22:04 23° 71° (ENE) 22:24:56 145.935 - 145.965
PCSat 23 Nov 22:41:24 22:44:57 18° 105° (ESE) 22:48:31 145.827
AIST 2D 23 Nov 22:44:35 22:46:07 12° 93° (E) 22:47:39 435.315
ESTCUBE 1 23 Nov 22:46:05 22:50:14 40° 72° (ENE) 22:54:26 437.505/2401.250
SPROUT 23 Nov 23:28:16 23:31:51 26° 70° (ENE) 23:35:25 437.525
RS-15 23 Nov 23:33:34 23:39:49 15° 360° (N) 23:45:57 29.354- 29.394
QB50P2 23 Nov 23:34:50 23:37:59 20° 95° (E) 23:41:07 145.880/145.840
O/OREOS (USA 219) 23 Nov 23:35:37 23:40:04 58° 253° (WSW) 23:44:28 437.305
UNISAT 6 23 Nov 23:46:55 23:47:38 10° 296° (WNW) 23:48:20 437.425
PRISM 23 Nov 23:48:14 23:51:45 27° 290° (WNW) 23:55:14 437.425
TIGRISAT 23 Nov 23:50:24 23:51:08 10° 296° (WNW) 23:51:51 435.000
LO-87 23 Nov 23:52:53 23:55:23 18° 265° (W) 23:57:52 145.935 - 145.965
AIST 2D 24 Nov 00:16:12 00:19:20 30° 287° (WNW) 00:22:28 435.315
DUCHIFAT 1 24 Nov 00:18:48 00:22:48 46° 99° (E) 00:26:48 145.980
PCSat 24 Nov 00:22:35 00:27:51 53° 300° (WNW) 00:33:10 145.827
ESTCUBE 1 24 Nov 00:24:26 00:27:11 16° 267° (W) 00:29:55 437.505/2401.250
VELOX 1 24 Nov 00:29:16 00:33:42 86° 77° (ENE) 00:38:11 145.980
EO-79 24 Nov 00:29:51 00:34:03 87° 99° (E) 00:38:14 145.935-145.965
NANOSAT C BR1 24 Nov 00:31:01 00:35:12 79° 101° (E) 00:39:22 145.865
POLYITAN 1 24 Nov 00:46:07 00:50:14 59° 285° (WNW) 00:54:20 437.675
50 SAT 24 Nov 00:46:24 00:49:01 23° 72° (ENE) 00:51:39 437.505
BUGSAT 1 24 Nov 00:59:34 01:03:06 29° 98° (E) 01:06:35 437.445
SPROUT 24 Nov 01:04:17 01:07:39 22° 265° (W) 01:11:01 437.525
DX 1 24 Nov 01:05:16 01:09:25 45° 73° (ENE) 01:13:37 434.975-435.025
Gurwin Techsat 1B 24 Nov 01:07:42 01:10:43 15° 92° (E) 01:13:42 435.225
nSIGHT-1 24 Nov 01:09:54 01:10:38 11° 22° (NNE) 01:11:22 .
QB50P2 24 Nov 01:10:10 01:13:44 27° 289° (WNW) 01:17:16 145.880/145.840
UKube-1 24 Nov 01:40:36 01:44:53 72° 75° (ENE) 01:49:12 .
RS-15 24 Nov 01:48:38 01:58:26 28° 36° (NE) 02:07:46 29.354- 29.394
Oscar 19 24 Nov 01:55:33 02:00:42 67° 102° (ESE) 02:05:50 437.125/150
DUCHIFAT 1 24 Nov 01:56:10 01:58:01 13° 294° (WNW) 01:59:52 145.980
BEESAT 2 24 Nov 01:57:26 01:59:50 15° 109° (ESE) 02:02:15 435.950
ISS 24 Nov 02:02:38 02:05:09 20° 30° (NNE) 02:07:39 437.550
MOZHAYETS 4 24 Nov 02:06:07 02:09:38 23° 69° (ENE) 02:13:10
AO-91 24 Nov 02:09:10 02:13:35 84° 281° (W) 02:17:28 145.960
BEESAT 24 Nov 02:11:26 02:14:59 21° 67° (ENE) 02:18:31 436.000
BEESAT 3 24 Nov 02:14:02 02:18:00 80° 300° (WNW) 02:22:01 437.485
50 SAT 24 Nov 02:19:30 02:21:04 13° 266° (W) 02:22:39 437.505
ITUPSAT 1 24 Nov 02:22:46 02:26:45 27° 69° (ENE) 02:30:44 437.325
BUGSAT 1 24 Nov 02:35:30 02:38:11 18° 292° (WNW) 02:40:53 437.445
DX 1 24 Nov 02:43:38 02:45:48 13° 267° (W) 02:47:58 434.975-435.025
nSIGHT-1 24 Nov 02:44:16 02:47:25 58° 39° (NE) 02:50:33 .
Gurwin Techsat 1B 24 Nov 02:45:46 02:50:59 58° 287° (WNW) 02:56:10 435.225
AO-85 24 Nov 03:00:16 03:03:29 26° 112° (ESE) 03:06:47 145.980
AO-7 24 Nov 03:02:39 03:09:44 30° 97° (E) 03:16:46 .
M-CUBED/EXP-1 PRIME 24 Nov 03:23:22 03:27:59 76° 106° (ESE) 03:32:37 437.505
BEESAT 2 24 Nov 03:33:27 03:37:12 38° 304° (NW) 03:41:00 435.950
Oscar 19 24 Nov 03:36:52 03:39:24 14° 297° (WNW) 03:41:56 437.125/150
KKS-1 24 Nov 03:38:16 03:38:46 10° 63° (ENE) 03:39:16 437.445
ISS 24 Nov 03:38:39 03:41:44 41° 226° (SW) 03:44:49 437.550
MOZHAYETS 4 24 Nov 03:42:36 03:46:36 30° 263° (W) 03:50:36
BEESAT 24 Nov 03:48:06 03:52:28 36° 262° (W) 03:56:51 436.000
ITAMSAT 1 24 Nov 03:54:58 04:00:01 50° 100° (E) 04:05:02 435.822/435.867
YUBILEINY 24 Nov 03:56:37 04:01:04 15° 78° (ENE) 04:05:32 435.215
ITUPSAT 1 24 Nov 04:00:23 04:04:27 28° 263° (W) 04:08:32 437.325
RS-15 24 Nov 04:00:52 04:12:43 88° 60° (ENE) 04:23:53 29.354- 29.394
CUBESAT XI-V 24 Nov 04:01:50 04:06:25 89° 275° (W) 04:11:02 437.345
nSIGHT-1 24 Nov 04:22:37 04:23:14 10° 233° (SW) 04:23:51 .
AO-85 24 Nov 04:40:44 04:43:49 22° 309° (NW) 04:46:59 145.980
DOVE 4 24 Nov 04:53:11 04:57:45 33° 96° (E) 05:02:03 437.250
AO-7 24 Nov 04:54:39 05:02:43 56° 294° (WNW) 05:10:48 .
M-CUBED/EXP-1 PRIME 24 Nov 05:00:15 05:01:43 11° 301° (WNW) 05:03:12 437.505
KKS-1 24 Nov 05:10:13 05:14:41 70° 258° (WSW) 05:19:10 437.445
STARS 24 Nov 05:25:06 05:29:29 64° 75° (ENE) 05:33:53 437.465
XW-2D 24 Nov 05:31:46 05:33:26 12° 93° (E) 05:35:06 145.860 - 145.880
ITAMSAT 1 24 Nov 05:35:35 05:39:03 18° 296° (WNW) 05:42:30 435.822/435.867
XW-2B 24 Nov 05:45:48 05:48:30 18° 95° (E) 05:51:11 145.730 - 145.750
NUDT-PHONESAT 24 Nov 05:47:14 05:48:47 12° 93° (E) 05:50:19 437.300
YUBILEINY 24 Nov 05:47:45 05:56:30 89° 101° (E) 06:05:22 435.215
CUTE-I 24 Nov 05:51:04 05:55:03 21° 94° (E) 05:58:59 437.470
XW-2C 24 Nov 06:10:51 06:14:27 39° 98° (E) 06:18:03 145.795 - 145.815
RS-15 24 Nov 06:15:55 06:23:23 20° 261° (W) 06:30:41 29.354- 29.394
SO-50 24 Nov 06:16:15 06:20:53 64° 59° (ENE) 06:25:33 436.795
STRAND 1 24 Nov 06:16:18 06:20:23 24° 67° (ENE) 06:24:29 437.568
LilacSat-2 24 Nov 06:16:54 06:20:40 52° 100° (E) 06:24:26 437.200
XW-2F 24 Nov 06:18:20 06:22:01 45° 99° (E) 06:25:40 145.980 - 146.000
DOVE 4 24 Nov 06:31:08 06:35:11 24° 292° (WNW) 06:39:04 437.250
FO-29 24 Nov 06:35:41 06:39:04 14° 56° (NE) 06:42:36 435.910
KAITUO 1B 24 Nov 06:40:19 06:44:05 70° 101° (E) 06:47:51 145.475/437.950
AO-7 24 Nov 06:52:20 06:53:39 10° 313° (NW) 06:54:58 .
XW-2D 24 Nov 07:04:11 07:07:42 36° 287° (WNW) 07:11:14 145.860 - 145.880
HO-68 24 Nov 07:12:29 07:19:27 51° 101° (E) 07:26:20 435.675
NUDT-PHONESAT 24 Nov 07:19:19 07:22:43 35° 287° (WNW) 07:26:07 437.300
XW-2B 24 Nov 07:19:27 07:22:36 25° 289° (WNW) 07:25:46 145.730 - 145.750
CUBEBUG 2 24 Nov 07:23:26 07:27:14 34° 98° (E) 07:31:00 437.445
CUTE 1.7 + AOD 2 24 Nov 07:28:05 07:32:23 76° 102° (ESE) 07:36:39 437.475
CUTE-I 24 Nov 07:30:10 07:35:13 43° 289° (WNW) 07:40:13 437.470
PCSat 24 Nov 07:32:53 07:33:51 10° 43° (NE) 07:34:50 145.827
XW-2C 24 Nov 07:46:38 07:48:14 12° 293° (WNW) 07:49:49 145.795 - 145.815
FALCONSAT 3 24 Nov 07:47:13 07:50:02 21° 154° (SSE) 07:52:52 435.103
AAUSAT CUBESAT 2 24 Nov 07:48:41 07:52:23 30° 97° (E) 07:56:04 437.432
XW-2A 24 Nov 07:48:48 07:51:51 31° 98° (E) 07:54:53 145.665 - 145.685
YUBILEINY 24 Nov 07:49:18 07:54:29 17° 295° (WNW) 07:59:44 435.215
SEEDS 24 Nov 07:51:55 07:56:11 86° 102° (ESE) 08:00:26 437.485
STRAND 1 24 Nov 07:54:39 07:59:20 35° 262° (W) 08:04:03 437.568
XW-2F 24 Nov 07:54:47 07:55:40 11° 293° (WNW) 07:56:32 145.980 - 146.000
ZACube-1 24 Nov 07:56:03 07:59:21 22° 96° (E) 08:02:40 437.345
SO-50 24 Nov 07:58:55 08:00:48 12° 252° (WSW) 08:02:40 436.795
UWE-3 24 Nov 08:12:49 08:16:57 76° 100° (E) 08:21:07 435.000/436.395/437.385
FO-29 24 Nov 08:16:05 08:22:43 80° 74° (ENE) 08:30:12 435.910
AO-73 24 Nov 08:44:13 08:48:23 78° 102° (ESE) 08:52:35 145.935
Oscar 11 24 Nov 08:56:43 09:01:03 71° 101° (E) 09:05:22 .
HO-68 24 Nov 09:00:52 09:06:47 29° 297° (WNW) 09:12:40 435.675
CUBEBUG 2 24 Nov 09:01:00 09:03:33 16° 292° (WNW) 09:06:06 437.445
PRISM 24 Nov 09:01:59 09:03:07 11° 64° (ENE) 09:04:15 437.425
UNISAT 6 24 Nov 09:03:10 09:07:23 38° 73° (ENE) 09:11:31 437.425
TIGRISAT 24 Nov 09:06:33 09:10:45 38° 73° (ENE) 09:14:53 435.000
PCSat 24 Nov 09:12:49 09:18:14 70° 62° (ENE) 09:23:37 145.827
DELFI C3 24 Nov 09:22:21 09:25:38 24° 96° (E) 09:28:51 145.870
XW-2A 24 Nov 09:23:02 09:24:13 11° 292° (WNW) 09:25:22 145.665 - 145.685
AAUSAT CUBESAT 2 24 Nov 09:24:38 09:27:35 19° 291° (WNW) 09:30:31 437.432
FALCONSAT 3 24 Nov 09:25:10 09:28:47 60° 168° (SSE) 09:32:25 435.103
ZACube-1 24 Nov 09:32:10 09:35:32 24° 289° (WNW) 09:38:56 437.345
EO-88 24 Nov 09:35:34 09:37:42 15° 94° (E) 09:39:49 145.990 - 145.960
Max Valier Satellite 24 Nov 09:44:26 09:47:40 29° 97° (E) 09:50:54 145.860
FO-29 24 Nov 10:04:44 10:08:38 16° 273° (W) 10:12:46 435.910
QB50P2 24 Nov 10:26:25 10:28:00 12° 65° (ENE) 10:29:34 145.880/145.840
BEESAT 3 24 Nov 10:33:23 10:36:39 24° 53° (NE) 10:39:52 437.485
PRISM 24 Nov 10:33:49 10:37:51 55° 259° (W) 10:41:56 437.425
UNISAT 6 24 Nov 10:41:12 10:44:10 17° 266° (W) 10:47:06 437.425
ESTCUBE 1 24 Nov 10:44:02 10:44:34 10° 91° (E) 10:45:06 437.505/2401.250
TIGRISAT 24 Nov 10:44:31 10:47:30 17° 266° (W) 10:50:28 435.000
AIST 2D 24 Nov 10:47:03 10:50:25 53° 75° (ENE) 10:53:48 435.315
DELFI C3 24 Nov 10:57:10 11:00:12 21° 290° (WNW) 11:03:13 145.870
PCSat 24 Nov 10:58:30 11:00:57 13° 257° (WSW) 11:03:25 145.827
FALCONSAT 3 24 Nov 11:04:07 11:07:49 78° 184° (S) 11:11:30 435.103
DUCHIFAT 1 24 Nov 11:08:09 11:11:34 24° 70° (ENE) 11:14:58 145.980
EO-88 24 Nov 11:08:11 11:11:20 28° 288° (WNW) 11:14:28 145.990 - 145.960
Max Valier Satellite 24 Nov 11:19:06 11:21:12 15° 291° (WNW) 11:23:18 145.860
EO-79 24 Nov 11:19:18 11:23:19 44° 73° (ENE) 11:27:20 145.935-145.965
NANOSAT C BR1 24 Nov 11:20:12 11:24:08 39° 73° (ENE) 11:28:03 145.865
LO-87 24 Nov 11:20:52 11:24:11 38° 98° (E) 11:27:28 145.935 - 145.965
AO-85 24 Nov 11:33:05 11:36:09 17° 48° (NE) 11:39:20 145.980
POLYITAN 1 24 Nov 11:35:25 11:39:38 70° 75° (ENE) 11:43:50 437.675
BUGSAT 1 24 Nov 11:47:25 11:49:59 16° 68° (ENE) 11:52:32 437.445
BEESAT 2 24 Nov 11:52:59 11:56:55 50° 57° (ENE) 12:00:46 435.950
QB50P2 24 Nov 11:59:08 12:03:17 52° 260° (W) 12:07:26 145.880/145.840
O/OREOS (USA 219) 24 Nov 12:06:55 12:10:25 22° 101° (E) 12:13:55 437.305
BEESAT 3 24 Nov 12:10:55 12:14:03 23° 248° (WSW) 12:17:08 437.485
ESTCUBE 1 24 Nov 12:17:14 12:21:43 63° 285° (WNW) 12:26:11 437.505/2401.250
VELOX 1 24 Nov 12:22:38 12:25:51 19° 95° (E) 12:29:03 145.980
Gurwin Techsat 1B 24 Nov 12:26:06 12:29:53 20° 65° (ENE) 12:33:40 435.225
FALCONSAT 3 24 Nov 12:43:16 12:46:45 39° 198° (SSW) 12:50:13 435.103
DUCHIFAT 1 24 Nov 12:43:43 12:47:06 23° 264° (W) 12:50:30 145.980
SPROUT 24 Nov 12:51:09 12:55:23 72° 102° (ESE) 12:59:36 437.525
LO-87 24 Nov 12:56:28 12:57:11 10° 293° (WNW) 12:57:53 145.935 - 145.965
EO-79 24 Nov 12:57:16 12:59:15 13° 267° (W) 13:01:14 145.935-145.965
NANOSAT C BR1 24 Nov 12:57:37 12:59:57 14° 267° (W) 13:02:18 145.865
AO-91 24 Nov 13:01:27 13:06:43 60° 74° (ENE) 13:12:00 145.960
Oscar 19 24 Nov 13:09:43 13:14:48 75° 75° (ENE) 13:19:56 437.125/150
AO-85 24 Nov 13:12:08 13:16:53 63° 243° (WSW) 13:21:58 145.980
BUGSAT 1 24 Nov 13:21:09 13:25:01 36° 261° (W) 13:28:52 437.445
NO-84 24 Nov 13:24:07 13:27:12 31° 126° (SE) 13:30:30 435.350 FM
UKube-1 24 Nov 13:31:36 13:33:54 14° 93° (E) 13:36:12 .
BEESAT 2 24 Nov 13:32:56 13:34:07 11° 253° (WSW) 13:35:18 435.950
50 SAT 24 Nov 13:37:25 13:40:12 27° 98° (E) 13:42:57 437.505
JUGNU 24 Nov 13:37:28 13:39:59 13° 171° (S) 13:42:30 437.505
O/OREOS (USA 219) 24 Nov 13:45:31 13:49:35 31° 296° (WNW) 13:53:42 437.305
VELOX 1 24 Nov 13:58:21 14:02:19 32° 289° (WNW) 14:06:15 145.980
AO-7 24 Nov 13:59:02 14:06:13 34° 61° (ENE) 14:13:24 .
Gurwin Techsat 1B 24 Nov 14:04:22 14:09:26 46° 261° (W) 14:14:33 435.225
M-CUBED/EXP-1 PRIME 24 Nov 14:06:45 14:10:14 54° 69° (ENE) 14:14:02 437.505
FALCONSAT 3 24 Nov 14:24:07 14:25:19 11° 211° (SSW) 14:26:30 435.103
DX 1 24 Nov 14:31:40 14:36:01 65° 285° (WNW) 14:40:19 434.975-435.025
AO-91 24 Nov 14:40:11 14:43:24 16° 269° (W) 14:46:39 145.960
Oscar 19 24 Nov 14:53:40 14:54:36 10° 270° (W) 14:55:31 437.125/150
